Terug naar catalogus

THORAD AGENA D DEB

ActiefSSO
NORAD 4859·DEBRIS·🇺🇸 United States

Gelanceerd Apr 8, 1970 vanaf Vandenberg Space Force Base

Loading…

Volgende Passages (komende 24 uur)

TLE

VersSource: Space-Track

Epoch: Sep 14, 2026, 18:26 UTC

1 04859U 70025EP  26257.76866844  .00000277  00000-0  42141-3 0  9992
2 04859  99.9487 358.2736 0047152  80.1966  82.3880 13.61302950779908

Volg THORAD AGENA D DEB in realtime met AllMySat

Download on the App Store